Hourly Data Report for July 01, 2021

SARNIA
ONTARIO
Current Station Operator: NAVCAN

42°59'58.000" N
82°18'32.000" W
181.40 m
6127510
71704
YZR

Download Data

Hourly Data (July 2021)
Hourly Data Report for July 1, 2021
TIME
LST
Temp Definition
°C
Dew Point Definition
°C
Rel Hum Definition
%
Precip. Amount Definition
mm

Wind Dir Definition
10's deg

Wind Spd Definition
km/h
Visibility Definition
km
Stn Press Definition
kPa
Hmdx Definition


Wind Chill Definition


Weather Definition


00:00 20.0 19.4 96 0.0   0 16.1 99.26 27   LegendNANA
01:00 19.1 16.9 87 0.0 5 18 16.1 99.27     LegendNANA
02:00 18.8 17.3 91 0.0 3 21 16.1 99.27     LegendNANA
03:00 18.4 16.6 89 0.0 7 9 16.1 99.22     LegendNANA
04:00 17.4 16.4 94 0.0 8 4 16.1 99.20     LegendNANA
05:00 17.4 16.3 93 0.0 LegendMM 4 16.1 99.21     LegendNANA
06:00 17.9 16.8 93 0.0 35 4 16.1 99.24     LegendNANA
07:00 19.7 16.7 83 0.0 1 13 16.1 99.25     LegendNANA
08:00 20.7 17.7 83 0.0 2 15 16.1 99.25 26   LegendNANA
09:00 20.7 17.9 84 0.0 35 17 16.1 99.25 27   LegendNANA
10:00 20.8 18.2 85 0.0 34 21 16.1 99.28 27   LegendNANA
11:00 21.2 17.8 81 0.0 1 30 16.1 99.31 27   LegendNANA
12:00 19.5 17.0 85 0.0 35 26 16.1 99.35     LegendNANA
13:00 20.3 17.4 83 0.0 1 30 16.1 99.34 26   LegendNANA
14:00 20.0 16.1 78 0.0 35 32 16.1 99.32 25   LegendNANA
15:00 19.9 16.4 80 0.0 36 28 16.1 99.30     LegendNANA
16:00 19.5 15.6 78 0.0 1 34 16.1 99.28     LegendNANA
17:00 18.9 15.2 79 0.0 1 30 16.1 99.29     LegendNANA
18:00 17.8 14.6 81 0.0 36 24 16.1 99.33     LegendNANA
19:00 17.0 13.6 80 0.0 36 30 16.1 99.38     LegendNANA
20:00 16.0 13.4 84 0.0 1 24 16.1 99.36     LegendNANA
21:00 15.8 13.0 83 0.0 35 26 16.1 99.36     LegendNANA
22:00 16.1 12.9 81 0.0 36 26 16.1 99.34     LegendNANA
23:00 16.2 13.0 81 0.0 35 24 16.1 99.32     LegendNANA

Notes on Data Quality.

Legend

  • E = Estimated
  • M = Missing
  • NA = Not Available*
  • [empty] = Indicates an unobserved value
Date modified: